Find Starlink 35496

NORAD ID: 66114 Int'l Des: 2025-237 Owner: SPXS Country: US Constellation: starlink operational
LEOCIRCULAR

当前视图

正在加载3D地球...

关于 Starlink 35496

正在加载描述...

即将过境

Passes for default location (London). Set your location on the main map for personalized predictions.

高度历史

Loading altitude history...

两行轨道根数

1 66114U 25237A 26146.43316299 .00022511 00000-0 76983-3 0 9990
2 66114 53.1610 38.4944 0001393 99.3880 260.7278 15.30200670 34510
Epoch: May 26, 2026 • Age: 12 hours

当前状态

高度 488.9 km
速度 7.62 km/s
星下点 -39.43°S, 133.2°E
发射日期 Oct 22, 2025
运行时间 0.5 years
类型 internet

技术详情

分类 Payload
质量 575.00 kg
干质量 530.00 kg
总质量 575.00 kg
长度 0.30 m
直径 4.10 m
跨度 29.00 m
形状 Box + pan
制造商 SPXS
平台类型 Starlink V2MO
阶段状态 In Orbit
所有者/国家 SPXS/US

Most Searched